Regional Weather Roundup
Issued by NWS

Home | Current Version | Previous Version | Text Only | Print | Product List | Glossary On
Versions: 1 2 3 4 5 6 7 8 9 10 11 12 13 14 15 16 17 18 19 20 21 22 23 24 25 26 27 28 29 30 31 32 33 34 35 36 37 38 39 40 41 42 43 44 45 46 47 48 49 50
000
ASUS44 KJAN 182110
RWRMS

MISSISSIPPI HOURLY WEATHER ROUNDUP
NATIONAL WEATHER SERVICE JACKSON MS
300 PM CST THU JAN 18 2018

NOTE: "FAIR: INDICATES FEW OR NO CLOUDS BELOW 12,000 FEET WITH NO
SIGNIFICANT WEATHER AND/OR OBSTRUCTIONS TO VISIBILITY.

MSZ001>002-007>008-010>013-018>021-025>028-034>036-182200-
NORTHWEST MISSISSIPPI

CITY           SKY/WX    TMP DP  RH WIND       PRES   REMARKS
BATESVILLE     FAIR      35  15  44 W7        30.46F WCI  29
CLARKSDALE     SUNNY     34  19  55 S7        30.46F WCI  28
CLEVELAND      FAIR      32  21  63 S6        30.48F WCI  26
GREENWOOD      FAIR      37  16  42 VRB3      30.47F
GREENVILLE     FAIR      34  18  52 S6        30.47F WCI  29
OLIVE BRANCH   SUNNY     36  18  48 S5        30.42F WCI  32
OXFORD         FAIR      39  12  33 VRB5      30.44F
TUNICA           N/A     32  21  64 S9        30.46F WCI  24
WINONA         FAIR      38  13  34 CALM      30.44F
$$

MSZ003>006-009-014>017-022>024-029>033-037>039-182200-
NORTHEAST MISSISSIPPI

CITY           SKY/WX    TMP DP  RH WIND       PRES   REMARKS
ABERDEEN         N/A     39  25  56 CALM      30.47F
COLUMBUS AFB   FAIR      38  17  42 CALM      30.46F
GOLDN TRIANGLE FAIR      39  11  31 W5        30.47F
STARKVILLE     FAIR      39  12  33 CALM      30.47F
TUPELO         FAIR      38  11  32 VRB3      30.45F
$$

MSZ040-058-182200-
CENTRAL MISSISSIPPI

CITY           SKY/WX    TMP DP  RH WIND       PRES   REMARKS
JACKSON INTL   FAIR      41   8  25 N6        30.44F
JACKSON HAWKNS FAIR      42  12  29 NW3       30.46F
MADISON        FAIR      37  12  35 CALM      30.46F
MERIDIAN KEY   FAIR      43   9  24 CALM      30.46F
MERIDIAN NAS   FAIR      42   9  25 CALM      30.47F
RAYMOND          N/A     41  14  33 CALM      30.46F
$$

MSZ059>079-182200-
SOUTH MISSISSIPPI

CITY           SKY/WX    TMP DP  RH WIND       PRES   REMARKS
HATTIESBURG    FAIR      43  14  31 NW7       30.46F
LAUREL         FAIR      42  11  28 N7        30.45F
MCCOMB         FAIR      45  10  24 VRB3      30.42F
NATCHEZ        FAIR      42  13  30 N6        30.46F
PINE BELT      FAIR      43  15  32 N6        30.45F
$$

MSZ080>082-182200-
COASTAL MISSISSIPPI

CITY           SKY/WX    TMP DP  RH WIND       PRES   REMARKS
BAY ST LOUIS   SUNNY     46  12  25 NE5       30.43F
BILOXI         FAIR      47  10  22 N6        30.43F
PASCAGOULA     FAIR      46   9  22 N8        30.44F
GULFPORT       FAIR      48  11  22 VRB7      30.43F
$$

LAZ007>009-015>016-023>026-182200-
NORTHEAST LOUISIANA

CITY           SKY/WX    TMP DP  RH WIND       PRES   REMARKS
BASTROP        FAIR      39  17  40 E3        30.46F
TALLULAH/VBURG FAIR      39  16  39 CALM      30.48F
VIDALIA        FAIR      40  19  42 MISG      30.47S
$$



USA.gov is the U.S. government's official web portal to all federal, state and local government web resources and services.